Dewpoint
24 25 21 17 17 17 16 14 12 12 12 8 3 2 2 3 2 28 52 53 57 58 59 60 61 61 61 60 61 60 60 59 58 57 56 55 54 55 54 55 57 59 59 58
18 22 24 22 22 24 20 17 16 15 15 15 14 13 9 0 1 17 49 52 53 56 58 60 61 61 61 60 60 59 59 58 57 55 55 55 53 54 54 55 56 59 59 59
13 16 19 13 15 21 24 22 18 15 16 15 12 11 11 3 3 9 44 52 53 54 54 58 60 60 60 59 59 59 58 57 56 54 52 54 55 56 53 54 56 58 59 60
16 19 8 9 13 21 22 25 23 20 16 13 13 8 9 2 -0 2 23 51 52 53 54 55 58 59 59 59 59 59 58 56 55 53 52 53 51 48 50 53 56 58 60 61
4 8 15 22 29 30 26 27 26 22 18 15 11 4 6 1 -0 -1 5 42 51 53 53 54 56 59 59 59 58 58 57 56 55 54 54 54 52 49 52 54 56 59 61 62
3 10 27 28 25 23 22 22 25 22 18 14 13 8 6 0 -0 2 4 17 45 52 53 54 54 57 58 58 58 60 58 57 55 54 55 55 55 54 56 56 57 59 61 62
4 4 20 21 23 21 21 22 21 18 16 13 13 10 9 4 4 4 5 5 29 49 53 53 53 55 56 57 57 59 58 57 57 55 55 56 56 56 58 58 58 59 60 61
6 2 17 16 26 25 25 23 23 12 10 8 12 9 8 13 12 13 7 11 18 30 50 53 52 54 55 56 57 58 57 56 58 57 56 57 57 57 58 59 59 60 60 61
9 10 13 18 30 31 23 26 27 25 18 13 9 7 25 35 38 41 47 48 48 48 39 53 54 52 55 56 56 57 57 56 57 58 57 57 58 58 59 60 60 60 61 60
12 9 12 15 23 27 25 27 24 25 16 14 8 18 27 34 38 42 44 45 46 49 51 52 54 53 55 56 56 57 57 56 57 58 57 57 58 59 60 61 61 61 61 60
12 14 9 13 22 20 19 19 21 25 26 18 12 27 35 36 40 41 41 41 43 47 51 54 53 54 55 56 56 56 57 56 57 58 58 58 58 60 60 60 60 61 60 60
17 15 9 6 16 28 17 21 21 16 16 20 19 27 34 36 38 35 34 34 39 43 46 53 54 52 53 54 56 55 57 56 57 58 58 58 58 60 60 60 60 60 60 59
22 13 7 2 16 22 12 14 18 24 25 21 19 24 33 33 32 32 32 33 36 42 45 48 52 55 54 54 54 55 57 57 58 58 58 58 59 59 59 58 57 57 57 56
18 15 10 6 7 13 12 13 15 23 20 20 24 23 29 30 30 26 25 30 34 38 43 47 49 52 55 56 56 56 57 57 58 58 58 58 59 59 58 57 56 56 56 56
15 12 13 13 12 12 11 12 18 25 25 20 26 24 29 32 32 33 28 24 28 33 38 44 47 50 51 53 55 56 56 58 59 58 58 59 59 58 57 57 57 57 57 57
17 13 12 10 11 11 10 16 22 19 22 20 20 21 31 34 33 33 32 27 26 27 34 37 41 42 46 49 51 52 54 56 58 59 58 58 57 56 56 56 56 56 56 55
18 18 13 8 9 7 10 17 22 20 23 22 15 20 26 32 32 32 32 29 26 24 26 35 35 36 40 42 49 49 51 53 53 54 54 55 55 55 55 55 54 54 53 53
10 9 18 8 9 -12 15 13 23 21 19 24 22 23 25 28 34 32 34 33 29 28 25 28 28 32 37 43 45 49 49 49 50 51 51 51 53 52 51 52 52 51 52 52
5 5 6 6 8 6 11 15 15 17 17 24 22 23 26 27 33 30 34 34 33 31 29 28 26 24 26 36 44 46 46 46 46 47 48 49 50 50 50 50 49 50 50 49
-4 3 9 11 5 0 12 15 15 24 9 18 24 23 25 25 17 22 32 36 34 33 32 31 29 21 21 23 33 42 45 45 45 45 46 47 48 47 47 48 47 48 49 49
-4 -3 10 6 9 12 13 16 14 7 12 21 24 26 26 23 26 30 33 35 35 34 32 31 31 28 21 21 24 29 40 45 45 45 45 45 46 46 46 46 47 47 47 47
-0 4 7 7 7 2 18 16 14 20 21 21 25 27 28 28 30 31 31 31 31 33 33 31 31 31 31 23 22 23 29 39 45 45 44 43 43 44 44 45 45 45 45 45
1 6 7 11 8 16 15 15 14 18 18 17 22 26 28 27 24 28 27 27 30 25 27 31 30 30 31 30 21 21 25 34 43 44 43 42 42 42 42 42 43 43 44 43
3 9 12 8 8 11 13 12 15 14 14 13 14 16 24 26 23 22 26 23 27 27 22 16 27 30 31 29 29 21 23 25 31 40 42 42 42 41 41 40 40 40 41 42
8 9 12 9 10 15 13 15 15 15 15 16 18 18 17 16 15 16 19 20 21 22 23 20 17 15 23 24 21 21 20 21 22 31 38 37 38 39 39 39 38 39 40 40
13 18 14 11 15 17 16 16 16 15 14 15 18 16 17 17 17 16 17 20 25 22 22 22 20 16 14 14 17 18 21 21 21 20 23 29 33 35 35 36 37 34 34 36
Lifted_Index
7 5 5 7 7 8 7 5 4 6 7 8 6 5 5 6 5 4 0 -3 -5 -5 -5 -5 -4 -3 -2 -2 -2 -1 1 2 3 4 4 4 5 6 6 6 5 4 4 3
5 5 6 7 7 7 6 5 4 5 7 8 7 6 5 6 6 4 1 -2 -4 -5 -5 -5 -4 -3 -3 -3 -2 -1 1 2 3 4 4 4 5 6 6 6 5 4 4 3
5 6 6 6 6 6 5 5 4 5 6 7 6 5 5 6 6 5 2 -2 -4 -5 -5 -4 -4 -3 -3 -3 -3 -2 0 2 3 4 5 5 6 6 6 6 5 4 3 3
7 7 6 5 5 5 4 4 4 5 6 5 5 4 4 5 5 5 3 -1 -3 -4 -4 -4 -4 -3 -3 -3 -3 -2 -1 1 3 4 5 5 5 6 6 5 4 3 2 2
7 7 6 5 4 3 3 3 3 4 4 5 4 4 4 5 5 4 4 1 -2 -4 -4 -4 -4 -4 -4 -4 -3 -3 -2 0 2 3 4 4 4 5 5 4 3 2 2 1
6 6 6 5 4 3 2 2 2 2 2 3 4 4 4 5 5 5 4 3 0 -3 -4 -4 -4 -4 -4 -4 -4 -3 -2 -1 1 2 3 3 3 3 3 2 2 2 1 1
5 5 6 6 4 3 2 2 1 1 1 2 4 4 4 5 5 5 5 4 2 -1 -3 -4 -4 -4 -4 -4 -4 -4 -3 -2 -0 1 2 1 1 1 1 1 1 1 0 0
3 4 6 6 5 4 3 2 1 0 0 1 2 4 4 5 5 4 3 3 2 1 -2 -4 -4 -4 -4 -4 -5 -5 -4 -3 -1 -0 1 1 0 0 -0 -0 -0 -0 -1 -1
4 4 6 7 6 5 4 3 1 0 -0 0 1 3 4 4 3 2 1 1 1 1 0 -2 -4 -4 -4 -5 -5 -5 -5 -4 -3 -2 -1 -0 -0 -0 -1 -1 -1 -1 -1 -1
7 5 6 7 7 5 4 3 2 1 0 -0 1 1 2 2 2 1 0 -0 0 1 1 -1 -3 -4 -4 -5 -5 -5 -5 -5 -4 -3 -2 -1 -0 -1 -1 -2 -2 -2 -2 -2
8 7 5 6 7 6 4 4 3 1 0 0 0 0 0 1 1 1 0 -0 -0 -0 -0 -1 -3 -4 -4 -4 -5 -5 -5 -5 -5 -4 -3 -2 -1 -1 -1 -2 -2 -2 -2 -2
8 7 5 5 6 6 6 5 4 2 1 1 0 -0 0 1 1 0 0 -1 -1 -1 -1 -2 -3 -4 -4 -4 -4 -5 -5 -5 -5 -4 -3 -2 -1 -1 -1 -2 -2 -2 -2 -2
8 7 5 4 5 6 6 6 5 4 3 1 1 1 1 1 1 1 0 -0 -1 -2 -2 -2 -3 -4 -4 -4 -4 -4 -5 -5 -4 -3 -3 -2 -1 -1 -1 -2 -2 -2 -2 -2
7 7 5 4 5 6 7 6 6 5 4 2 2 2 2 2 1 1 1 1 -0 -1 -2 -2 -3 -3 -4 -4 -4 -4 -4 -4 -4 -3 -3 -2 -2 -2 -1 -1 -2 -2 -2 -3
7 6 6 6 6 7 7 6 6 5 4 4 4 4 4 4 3 3 3 3 2 1 -0 -1 -1 -2 -3 -3 -3 -3 -3 -3 -3 -3 -3 -3 -2 -2 -2 -2 -2 -2 -2 -2
6 6 6 6 6 6 6 5 5 5 5 5 5 6 7 7 6 5 4 4 3 3 2 2 1 -0 -1 -1 -2 -2 -2 -3 -3 -3 -3 -3 -3 -2 -2 -2 -2 -2 -2 -2
5 5 5 5 5 5 4 4 4 5 5 5 5 7 8 8 8 7 7 6 6 5 5 4 3 2 2 1 -0 -1 -2 -2 -3 -3 -3 -3 -2 -2 -2 -3 -3 -3 -2 -2
4 4 4 4 3 3 3 3 4 4 5 6 6 7 8 8 9 9 9 9 9 8 8 7 7 6 5 4 2 1 0 -1 -2 -2 -2 -1 -1 -1 -2 -2 -3 -3 -2 -1
3 3 2 2 2 2 2 3 3 3 4 6 6 7 7 8 9 10 11 11 11 11 11 11 11 10 8 7 6 5 4 2 1 1 1 1 1 0 -1 -2 -2 -2 -1 -0
3 3 2 1 1 1 2 3 2 2 3 6 7 7 8 8 8 10 11 11 12 12 12 12 13 13 12 10 9 7 6 5 5 4 4 4 3 1 -0 -1 -1 -1 0 1
4 3 2 1 1 1 3 3 3 2 4 6 7 7 8 8 9 10 10 11 11 12 12 13 13 13 13 13 12 10 9 8 8 8 7 7 5 3 2 1 0 1 1 1
4 3 2 2 1 2 3 4 3 4 5 6 6 7 7 8 9 9 10 10 11 11 12 13 13 13 14 14 13 13 11 10 9 9 9 9 8 7 4 3 3 3 2 2
3 2 2 2 2 2 3 4 4 5 5 6 6 6 6 7 8 9 9 9 10 10 11 12 13 13 13 13 14 14 13 12 10 10 10 10 10 9 8 6 6 5 4 4
1 1 1 1 1 2 3 4 4 5 5 5 6 6 6 7 7 8 9 9 9 9 10 11 12 12 12 13 13 13 14 13 12 11 11 11 11 11 11 10 10 8 7 6
1 0 0 1 1 1 2 3 4 4 5 5 6 6 7 7 7 8 8 9 8 8 9 9 10 11 12 12 13 13 13 14 13 13 12 13 13 13 13 12 12 11 11 10
0 0 0 0 1 1 2 2 3 4 5 5 6 6 7 8 8 8 8 8 8 8 8 8 9 11 11 12 12 13 13 14 14 14 14 14 14 13 13 13 13 12 12 12